STARLINK-1502, 45764

Orbit data source: Space-Track

STARLINK-1502, 45764 is a payload satellite owned by SpaceX/Seattle (US) in LEO that was launched on Sat, 13 Jun 2020 UTC via an FALCON 9 launch vehicle from the Air Force Eastern Test Range (AFETR). Payload-class satellites include a variety of spacecraft equipped with specific instruments for various scientific and technological missions. These include communications satellites like Starlink; space stations such as the ISS; scientific satellites like the Hubble; Earth observation satellites from companies like Planet Labs, Umbra, and HawkEye 360; GPS; miniature CubeSats for education and research; and military/defense satellites.

Loading next visibility...
Identifier
45764, 2020-038AL
Orbit
LEO
Last TLE update
20 hours ago
Origin
Manufacturer
SpaceX/Seattle
Mission
Operational Commercial Communications
Bus & Motor
STARLINK, Unknown motor
Mass
260 kg wet, ~248 kg dry
Launch date (UTC)
2020-06-13 (5 years ago)
Launch vehicle
FALCON 9
Launch site
Air Force Eastern Test Range (AFETR)
Object type
Payload
Rocket body
Debris
Shape & HBR
Box + 1 Pan, 8.86 m
Radar Cross Section
13.562 m², Large (>1 m²)

Expand to show TLE details & history

TLE from 20 hours ago
0 STARLINK-1502
1 45764U 20038AL  25181.56921279  .00005426  00000-0  38279-3 0  9996
2 45764  53.0535 268.4318 0001298  96.1486 263.9651 15.06409921278483
Epoch: 2025-06-30T13:39Z
TLE epoch observation values (Epoch: 2025-06-30T13:39:39.985Z)
Latitude
0.00001°
Longitude
144.63806°
Altitude
548.155 km
Speed
7.589 km/s
True Right ascension
17h 53m 43s
True Declination
0° 00' 00"
Sunlit
Object was in full shadow at epoch
Visualization orbit readout
Latitude
49.73529°
Longitude
-101.04234°
Altitude
552.024 km
Speed
7.592 km/s
Apparent Right ascension
05h 26m 25s
Apparent Declination
12° 33' 22"
Sunlit
Object is in daylight
Visualization observer readout
Local Sidereal Time
20:52:55
Azimuth
54.02° ENE
Elevation
-18.982°
Doppler factor
1
Orbital elements
Apogee altitude
548.351 km
Perigee altitude
546.553 km
Semi-major axis
6,925.589 km
Eccentricity
0.00013
Inclination
53.0535°
RAAN
268.4318°
Arg. of periapsis
96.1486°
True anomaly
Unknown
Mean anomaly
263.9651°
Eccentric anomaly
Unknown
Mean motion
3.76581 °/min
Orbital period
95.6 mins
BSTAR
0.00038279
Loading maneuver chart data...
Loading SW <> Apogee altitude chart data...

STARLINK-1502 Visibility forecast

Observer location: undefined°, undefined°

Span
Click to sort rows by Start time (UTC) header in descending order
Start Az.
Max El. time (UTC)
Max El. Az.
Max El.
End time (UTC)
End Az.
4 mins2025-07-01 10:39:40.481Z312.869° NW2025-07-01 10:41:40.481Z347.366° N16.477°2025-07-01 10:43:40.481Z19.604° NNE
5 mins2025-07-01 14:00:40.481Z338.946° N2025-07-01 14:02:40.481Z17.824° NNE24.052°2025-07-01 14:05:40.481Z77.851° E
6 mins2025-07-01 15:40:40.481Z292.796° NW2025-07-01 15:42:40.481Z228.627° WSW39.921°2025-07-01 15:46:40.481Z145.981° SSE
5 mins2025-07-02 07:13:40.481Z171.604° S2025-07-02 07:15:40.481Z128.393° SE24.092°2025-07-02 07:18:40.481Z75.597° E
6 mins2025-07-02 08:52:40.481Z264.355° W2025-07-02 08:54:40.481Z313.537° NW34.581°2025-07-02 08:58:40.481Z39.275° NE
|